Regional Weather Roundup
Issued by NWS Northern Indiana

Home | Current Version | Previous Version | Graphics & Text | Print | Product List | Glossary On
Versions: 1 2 3 4 5 6 7 8 9 10 11 12 13 14 15 16 17 18 19 20 21 22 23 24 25 26 27 28 29 30 31 32 33 34 35 36 37 38 39 40 41 42 43 44 45 46 47 48 49 50
000
ASUS43 KIWX 201710
RWRIWX

KIWX WEATHER ROUNDUP
NATIONAL WEATHER SERVICE NORTHERN INDIANA
100 PM EDT SUN AUG 20 2017

NOTE: "FAIR" INDICATES FEW OR NO CLOUDS BELOW 12,000 FEET WITH NO
SIGNIFICANT WEATHER AND/OR OBSTRUCTIONS TO VISIBILITY.

* THESE STATIONS ARE NOT UNDER NWS QUALITY CONTROL. THEY ALSO MAY NOT
  REPORT WEATHER SUCH AS PRECIPITATION OR FOG.

INZ001>027-201800-
NORTHERN INDIANA

CITY           SKY/WX    TMP DP  RH WIND       PRES   REMARKS
GARY*          PTSUNNY   84  61  45 S6        30.05F
VALPARAISO     SUNNY     84  68  58 S6        30.07F
MICHIGAN CITY* SUNNY     82  64  54 S8        30.07F
LAPORTE*       SUNNY     82  65  56 S5        30.08F
KNOX*          MOSUNNY   82  66  57 S3        30.07F
SOUTH BEND     MOSUNNY   82  64  54 S8        30.08F
ELKHART*       SUNNY     82  63  51 W5        30.08F
GOSHEN         SUNNY     81  63  54 VRB3      30.09F
MONTICELLO*    SUNNY     83  67  58 SW3       30.06S
LOGANSPORT*    MOSUNNY   82  66  57 SW3       30.08S
ROCHESTER*     MOSUNNY  N/A N/A N/A E3        30.08F
WARSAW*        SUNNY     81  64  57 S5        30.09S
AUBURN*        SUNNY     81  63  54 S3        30.10F
FORT WAYNE     MOSUNNY   83  64  52 S6        30.08F
HUNTINGTON*    SUNNY     83  67  58 S5        30.08F
PERU/GRISSOM   SUNNY     84  69  62 SW5       30.07S
MARION*        MOSUNNY   82  68  61 SW3       30.09F

$$
INZ028>050-201800-
CENTRAL INDIANA

CITY           SKY/WX    TMP DP  RH WIND       PRES   REMARKS
LAFAYETTE      CLOUDY    86  67  52 CALM      30.06S
KOKOMO*        PTSUNNY   84  69  60 SW5       30.09S
MUNCIE*        PTSUNNY   85  68  56 SW3       30.08F
INDIANAPOLIS   CLOUDY    86  63  45 SW6       30.08S

$$
MIZ043>046-050>051-056>058-064>065-071>073-077>080-201800-
SOUTHWEST LOWER MICHIGAN

CITY           SKY/WX    TMP DP  RH WIND       PRES   REMARKS
BATTLE CREEK   SUNNY     81  60  48 S8        30.11S
BENTON HARBOR  MOSUNNY   84  59  42 MISG      30.06F
COLDWATER*     SUNNY     81  57  44 S6        30.10F
HILLSDALE*     PTSUNNY   79  61  53 S8        30.12F
HOLLAND        CLOUDY    80  63  55 SW8       30.08F
GRAND RAPIDS   CLOUDY    81  59  47 SW7       30.08F
KALAMAZOO      SUNNY     83  56  39 VRB7      30.09F
STURGIS*       SUNNY     79  62  54 CALM      30.09F
THREE RIVERS*  FAIR      83  59  43 S3        30.10S

$$
OHZ001>008-015>018-024>025-201800-
NORTHWEST OHIO

CITY           SKY/WX    TMP DP  RH WIND       PRES   REMARKS
WAUSEON*       FAIR      82  63  51 SW5       30.11F
DEFIANCE       SUNNY     80  62  54 S7        30.10F
FINDLAY        MOSUNNY   83  63  50 W7        30.11R
TOLEDO EXPRESS SUNNY     81  64  56 VRB7      30.11S
TOLEDO METCALF SUNNY     82  62  50 S8        30.12R
LIMA           SUNNY     83  67  58 S5        30.11S

$$
AND FOR LAKE MICHIGAN COASTAL AND OPEN LAKE BUOY OBSERVATIONS

STATION/POSITION TEMP    WIND        PRES    VSBY  WAVE
                 AIR SEA DIR/SP/G                  HT/PER
                 (F)     (DEG/KT/KT) (MB)    (MI)  (FT/S)
CALUMET HARBOR    82     200/  7/  9 1016.7F
MICHIGAN CITY     79     200/  5/  7   N/A
BURNS HARBOR      82     200/  7/ 12 1017.9F
SAINT JOSEPH      82     240/  4/  6 1019.0
SOUTH LAKE BUOY   72 71  180/ 10/ 10 1018.1          1/ 3
4 MI NW BRIDGMAN  77 76  250/  2/  4 1017.8          1
MICHIGAN CITY     79 75   CALM  /  2   N/A           1

$$
&&




USA.gov is the U.S. government's official web portal to all federal, state and local government web resources and services.